Tracking 18710 objects as of 29-June-2017
HD Live streaming from Space Station
objects crossing your sky now

INSAT 1C

Track INSAT 1C now!
INSAT 1C is classified as:


NORAD ID: 19330
Int'l Code: 1988-063A
Perigee: 35,770.2 km
Apogee: 35,822.8 km
Inclination: 14.9 °
Period: 1,436.2 minutes
Semi major axis: 42167 km
RCS: 1.9952 m2 (large)
Launch date: July 21, 1988
Source: India (IND)
Launch site: FRENCH GUIANA (FRGUI)
Your satellite tracking list
Your tracking list is empty





NASA's NSSDC Master Catalog

Two Line Element Set (TLE):
1 19330U 88063A   17179.45601722 -.00000292 +00000-0 +00000-0 0  9997
2 19330 014.8995 356.0514 0006234 090.4739 087.9648 01.00262015087368
Source of the keplerian elements: AFSPC